SCP
0 0 0 0 0 0 0 0 0 0 0 0 0 0 0 0 0 0 0 0 0 0 0 0 0 0 0 0 0 0 0 0 0 0 0 0 0 0 0 0 0 0 0 0
0 0 0 0 0 0 0 0 0 0 0 0 0 0 0 0 0 0 0 0 0 0 0 0 0 0 0 0 0 0 0 0 0 0 0 0 0 0 0 0 0 0 0 0
0 0 0 0 0 0 0 0 0 0 0 0 0 0 0 0 0 0 0 0 0 0 0 0 0 0 0 0 0 0 0 0 0 0 0 0 0 0 0 0 0 0 0 0
0 0 0 0 0 0 0 0 0 0 0 0 0 0 0 0 0 0 0 0 0 0 0 0 0 0 0 0 0 0 0 0 0 0 0 0 0 0 0 0 0 0 0 0
0 0 0 0 0 0 0 0 0 0 0 0 0 0 0 0 0 0 0 0 0 0 0 0 0 0 0 0 0 0 0 0 0 0 0 0 0 0 0 0 0 0 0 0
0 0 0 0 0 0 0 0 0 0 0 0 0 0 0 0 0 0 0 0 0 0 0 0 0 0 0 0 0 0 0 0 0 0 0 0 0 0 0 0 0 0 0 0
0 0 0 0 0 0 0 0 0 0 0 0 0 0 0 0 0 0 0 0 0 0 0 0 0 0 0 0 0 0 0 0 0 0 0 0 0 0 0 0 0 0 0 0
0 0 0 0 0 0 0 0 0 0 0 0 0 0 0 0 0 0 0 0 0 0 0 0 0 0 0 0 0 0 0 0 0 0 0 0 0 0 0 0 0 0 0 0
0 0 0 0 0 0 0 0 0 0 0 0 0 0 0 0 0 0 0 0 0 0 0 0 0 0 0 0 0 0 0 0 0 0 0 0 0 0 0 0 0 0 0 0
0 0 0 0 0 0 0 0 0 0 0 0 0 0 0 0 0 0 0 0 0 0 0 0 0 0 0 0 0 0 0 0 0 0 0 0 0 0 0 0 0 0 0 0
0 0 0 0 0 0 0 0 0 0 0 0 0 0 0 0 0 0 0 0 0 0 0 0 0 0 0 0 0 0 0 0 0 0 0 0 0 0 0 0 0 0 0 0
0 0 0 0 0 0 0 0 0 0 0 0 0 0 0 0 0 0 0 0 0 0 0 0 0 0 0 0 0 0 0 0 0 0 0 0 0 0 0 0 0 0 0 0
0 0 0 0 0 0 0 0 0 0 0 0 0 0 0 0 0 0 0 0 0 0 0 0 0 0 0 0 0 0 0 0 0 0 0 0 0 0 0 0 0 0 0 0
0 0 0 0 0 0 0 0 0 0 0 0 0 0 0 0 0 0 0 0 0 0 0 0 0 0 0 0 0 0 0 0 0 0 0 0 0 0 0 0 0 0 0 0
0 0 0 0 0 0 0 0 0 0 0 0 0 0 0 0 0 0 0 0 0 0 0 0 0 0 0 0 0 0 0 0 0 0 0 0 0 0 0 0 0 0 0 0
0 0 0 0 0 0 0 0 0 0 0 0 0 0 0 0 0 0 0 0 0 0 0 0 0 0 0 0 0 0 0 0 0 0 0 0 0 0 0 0 0 0 0 0
0 0 0 0 0 0 0 0 0 0 0 0 0 0 0 0 0 0 0 0 0 0 0 0 0 0 0 0 0 0 0 0 0 0 0 0 0 0 0 0 0 0 0 0
0 0 0 0 0 0 0 0 0 0 0 0 0 0 0 0 0 0 0 0 0 0 0 0 0 0 0 0 0 0 0 0 0 0 0 0 0 0 0 0 0 0 0 0
0 0 0 0 0 0 0 0 0 0 0 0 0 0 0 0 0 0 0 0 0 0 0 0 0 0 0 0 0 0 0 0 0 0 0 0 0 0 0 0 0 0 0 0
0 0 0 0 0 0 0 0 0 0 0 0 0 0 0 0 0 0 0 0 0 0 0 0 0 0 0 0 0 0 0 0 0 0 0 0 0 0 0 0 0 0 0 0
0 0 0 0 0 0 0 0 0 0 0 0 0 0 0 0 0 0 0 0 0 0 0 0 0 0 0 0 0 0 0 0 0 0 0 0 0 0 0 0 0 0 0 0
0 0 0 0 0 0 0 0 0 0 0 0 0 0 0 0 0 0 0 0 0 0 0 0 0 0 0 0 0 0 0 0 0 0 0 0 0 0 0 0 0 0 0 0
0 0 0 0 0 0 0 0 0 0 0 0 0 0 0 0 0 0 0 0 0 0 0 0 0 0 0 0 0 0 0 0 0 0 0 0 0 0 0 0 0 0 0 0
0 0 0 0 0 0 0 0 0 0 0 0 0 0 0 0 0 0 0 0 0 0 0 0 0 0 0 0 0 0 0 0 0 0 0 0 0 0 0 0 0 0 0 0
0 0 0 0 0 0 0 0 0 0 0 0 0 0 0 0 0 0 0 0 0 0 0 0 0 0 0 0 0 0 0 0 0 0 0 0 0 0 0 0 0 0 0 0
0 0 0 0 0 0 0 0 0 0 0 0 0 0 0 0 0 0 0 0 0 0 0 0 0 0 0 0 0 0 0 0 0 0 0 0 0 0 0 0 0 0 0 0
Wind_Speed
8 8 12 14 14 9 8 10 10 5 4 6 7 7 7 8 7 7 7 6 7 8 7 7 8 8 8 8 8 11 12 12 10 8 8 7 6 5 4 4 6 6 6 6
7 13 12 10 11 11 7 9 8 6 2 2 4 8 7 7 8 8 8 8 8 8 7 6 6 6 7 7 8 8 10 12 11 9 8 6 6 5 6 5 6 7 7 7
12 7 10 10 9 9 8 7 7 7 3 0 1 6 9 10 9 7 7 6 5 6 8 7 6 6 6 6 7 7 9 10 11 10 6 5 4 4 4 5 5 7 7 7
11 4 9 9 9 8 7 2 4 9 6 4 6 4 7 10 10 9 7 6 5 4 4 5 5 4 4 4 4 5 6 7 9 10 8 8 6 6 6 4 4 5 7 7
7 7 8 10 9 7 3 5 6 6 4 2 4 4 7 4 6 8 8 7 5 4 4 5 4 3 2 1 2 2 3 4 6 8 8 8 6 4 3 3 4 4 4 5
3 2 3 4 4 7 8 7 6 2 2 4 7 6 6 5 7 6 6 6 6 6 5 5 5 4 3 2 1 2 3 3 3 5 6 6 6 5 3 3 2 2 2 2
4 2 1 3 8 6 7 8 4 3 3 6 2 6 8 3 3 5 8 7 7 6 5 5 5 4 3 2 2 3 4 4 4 5 5 4 4 4 3 2 2 2 2 2
10 8 8 6 7 9 9 9 9 8 7 3 2 7 8 2 4 5 6 7 7 6 5 5 5 5 4 4 4 5 5 6 6 6 5 5 5 4 3 4 4 4 3 3
12 6 8 3 1 8 8 7 4 6 3 3 6 7 5 3 3 4 5 7 7 7 6 6 6 6 5 5 5 6 7 7 7 7 7 7 7 6 6 6 5 4 4 3
5 8 5 2 1 2 3 7 5 6 8 5 5 6 6 7 9 8 9 8 7 7 7 6 6 6 6 6 6 7 8 8 8 8 7 7 7 7 7 6 6 5 5 5
2 9 5 3 9 9 5 7 7 6 6 7 5 8 4 7 9 10 10 9 9 8 7 6 6 6 6 6 7 7 7 8 8 8 8 8 7 7 7 7 6 5 5 5
4 8 6 3 1 2 4 7 8 8 7 6 4 8 1 2 4 8 9 9 9 8 8 7 7 6 6 6 6 7 7 8 7 7 8 8 8 7 7 7 6 6 5 5
7 9 8 3 1 2 4 5 7 4 6 5 5 8 0 2 3 6 9 9 9 9 8 7 6 6 6 6 6 7 7 7 7 7 8 8 8 7 7 6 6 6 5 5
7 5 9 13 10 10 7 8 8 7 6 7 10 8 4 5 6 7 9 10 9 9 8 8 7 6 6 6 7 7 6 6 7 8 8 8 7 7 6 6 6 5 5 5
6 6 5 4 3 11 9 12 13 12 12 10 11 11 9 10 11 11 11 10 10 10 10 9 8 7 7 7 7 7 6 6 7 8 8 7 7 6 6 5 5 4 4 4
5 6 5 2 0 4 6 12 16 16 14 14 10 9 4 8 8 10 12 13 13 12 12 11 10 9 8 8 7 7 7 6 7 8 8 6 5 5 5 4 4 4 4 4
7 7 7 5 3 4 6 13 17 14 13 12 18 15 4 5 10 14 15 15 15 14 12 13 12 10 9 8 8 8 7 7 8 7 6 5 5 5 4 4 4 5 4 4
9 8 5 5 6 9 14 8 11 14 14 14 11 4 8 10 11 11 13 16 15 14 14 13 12 10 8 8 8 8 8 7 7 7 6 5 4 4 4 4 4 4 3 4
7 9 6 6 7 8 7 7 12 14 15 14 15 11 6 5 3 4 7 11 13 13 12 11 11 11 10 9 9 9 8 7 7 6 5 4 4 4 3 4 4 3 4 4
3 6 6 6 7 12 10 7 7 7 13 10 11 10 9 10 8 9 8 9 10 10 11 12 12 12 11 9 9 10 8 7 6 5 4 4 3 3 2 3 3 3 4 4
8 6 8 7 7 10 4 4 9 11 12 4 9 10 12 14 10 5 9 8 9 11 12 13 13 11 9 9 10 10 8 7 5 4 4 3 3 2 2 2 2 3 4 5
12 10 10 8 9 12 5 7 10 6 1 1 1 3 7 5 6 8 9 10 11 12 12 13 12 10 8 7 9 10 8 6 5 4 3 3 2 1 1 2 3 3 4 4
8 8 7 9 8 1 6 5 2 2 3 1 1 2 7 7 7 8 8 10 10 11 11 10 12 11 8 5 7 9 7 5 4 4 3 2 1 1 1 2 3 3 3 3
2 1 3 3 3 2 2 2 2 2 2 2 2 5 6 7 9 9 10 10 10 10 10 10 12 11 8 6 6 7 7 5 4 4 2 1 1 2 2 2 2 2 3 3
4 5 4 3 1 1 2 3 3 3 3 3 3 3 6 9 9 9 9 10 9 9 8 8 10 10 9 8 7 6 5 4 4 3 2 1 1 1 2 2 2 3 4 5
4 6 6 5 5 5 3 3 5 5 3 4 5 4 5 8 10 10 9 8 9 9 8 8 8 9 9 8 7 5 4 4 4 3 2 1 1 1 2 3 4 7 8 10
Wind_Direction
183 197 205 203 212 226 203 205 206 165 137 174 208 234 227 187 187 211 223 213 195 197 191 176 172 174 172 176 175 175 176 180 180 183 186 190 195 193 196 199 197 195 192 192
177 216 212 206 209 233 243 222 204 101 99 181 229 245 244 228 207 203 209 214 202 189 170 155 155 162 174 183 186 184 181 180 183 189 189 191 189 192 197 197 202 201 198 195
194 200 200 206 199 208 233 228 196 132 110 337 325 277 235 232 218 209 205 211 207 180 167 162 164 172 179 192 195 194 190 184 183 181 179 177 187 191 192 198 201 204 201 198
211 188 177 184 190 184 216 239 127 125 139 190 183 258 243 205 200 202 205 207 208 168 147 145 153 165 174 191 194 196 195 188 182 177 179 180 189 198 198 192 194 195 197 198
194 168 172 186 189 180 151 106 109 139 165 153 189 234 275 176 186 205 197 186 171 141 131 121 109 109 98 120 175 191 192 186 177 173 175 183 196 201 193 182 179 184 186 188
100 147 174 175 153 145 123 90 76 92 150 234 204 198 261 211 196 188 169 150 133 116 106 101 92 85 74 71 113 158 167 164 153 156 163 176 187 186 180 176 157 145 128 136
138 154 56 106 109 131 156 132 120 163 205 234 208 199 240 222 125 138 144 134 124 125 125 123 120 111 100 100 103 109 117 113 114 123 137 153 166 166 165 156 133 110 86 70
161 183 189 190 161 165 194 168 156 171 194 215 321 230 247 170 98 89 110 124 126 128 119 113 110 106 99 96 101 102 102 96 92 95 98 102 108 105 94 89 90 84 76 60
175 175 151 163 5 151 171 209 157 127 114 158 226 251 260 173 161 161 154 147 148 139 126 117 106 101 97 88 88 97 99 94 92 92 90 86 87 89 86 79 75 72 64 52
156 133 138 108 91 350 192 152 124 137 153 205 229 222 228 207 208 191 179 170 154 137 127 118 107 98 91 86 82 82 87 88 85 84 84 85 79 79 80 77 71 66 57 51
120 121 129 155 192 178 165 160 170 158 171 171 212 246 224 194 187 180 176 163 152 145 136 125 114 106 101 93 88 87 86 86 84 83 83 81 75 74 73 71 65 60 56 49
146 118 137 168 106 359 213 183 172 165 200 188 186 255 315 86 130 150 153 149 143 137 131 126 123 117 109 102 95 90 87 87 85 85 84 81 75 72 70 65 56 51 50 45
141 125 115 112 163 232 236 217 207 162 136 162 183 251 352 110 122 140 145 143 140 138 135 132 130 126 119 111 103 95 91 91 89 86 84 79 72 69 67 61 52 46 43 39
134 146 163 180 188 171 189 204 200 171 171 194 213 221 197 184 173 167 159 154 151 152 149 145 140 132 125 119 112 105 95 91 91 87 83 77 69 66 62 55 48 40 36 34
136 178 202 201 166 159 177 191 194 203 202 197 222 223 208 192 188 179 166 159 161 165 164 161 154 145 135 124 115 108 99 91 92 90 84 76 69 64 59 52 43 37 33 26
159 175 175 217 293 163 186 194 195 210 220 230 242 242 204 175 157 158 166 171 178 180 176 167 159 153 148 140 130 118 106 95 93 90 84 78 74 69 60 49 38 35 28 17
157 144 153 192 137 73 239 207 197 206 215 215 234 238 153 156 170 177 179 183 188 184 177 172 167 160 152 143 134 126 115 104 99 97 92 84 80 71 55 41 36 28 15 5
149 142 137 130 125 209 234 198 192 210 223 218 230 222 180 189 191 190 184 184 186 181 176 171 162 151 140 128 122 116 113 112 108 102 95 83 75 65 48 39 30 13 2 353
144 140 141 155 186 242 254 202 194 204 233 217 225 227 190 158 151 228 200 182 183 178 167 157 148 139 133 131 128 124 119 115 109 103 93 78 68 59 42 29 11 355 346 336
133 139 150 168 187 222 236 188 161 168 249 221 210 213 179 151 196 226 183 168 160 149 144 139 135 131 133 132 131 128 124 116 108 101 91 76 66 57 35 8 348 340 330 319
171 172 189 190 214 249 227 159 131 178 236 199 198 203 181 190 209 163 135 133 133 131 131 132 132 133 134 134 132 127 122 116 107 96 88 75 58 36 13 353 339 327 322 317
178 182 193 188 211 237 164 148 175 203 165 174 194 192 170 154 113 118 125 128 129 127 128 129 128 123 120 126 131 126 120 111 101 95 88 73 48 17 12 350 331 325 318 314
189 188 181 194 214 186 164 171 147 113 137 148 158 116 126 122 126 126 126 128 127 128 129 127 127 121 109 105 124 126 120 114 109 103 94 79 42 8 353 341 328 322 319 312
216 109 152 201 226 160 148 95 90 83 113 126 125 128 131 133 137 133 133 132 131 128 130 130 131 130 125 110 100 111 117 115 117 111 98 72 46 16 5 335 311 305 306 304
174 160 168 212 210 67 262 215 165 120 112 116 111 124 136 136 141 143 143 143 141 136 134 139 143 141 137 129 115 109 111 121 119 112 99 72 44 7 334 313 290 290 261 262
181 173 175 202 187 173 205 196 163 153 157 154 141 132 133 146 147 144 146 146 144 144 140 139 137 137 136 131 125 118 116 121 121 116 106 81 24 348 325 316 310 303 299 298